Air Resources Laboratory banner image
Air Resources Laboratory web site National Oceanic and Atmospheric Administration (NOAA)

fl roundup


Office: TBW

ASUS42 KTBW 140017
RWRFL
FLORIDA REGIONAL WEATHER ROUNDUP
NATIONAL WEATHER SERVICE TAMPA BAY RUSKIN FL
800 PM EDT SAT AUG 13 2022

NOTE: "FAIR" INDICATES FEW OR NO CLOUDS BELOW 12,000 FEET WITH NO
SIGNIFICANT WEATHER AND/OR OBSTRUCTIONS TO VISIBILITY.

FLZ001>010-012>015-112-114-115-140100-
PANHANDLE FLORIDA

CITY           SKY/WX    TMP DP  RH WIND       PRES   REMARKS
PENSACOLA      MOCLDY    83  75  77 NW7       29.98R
CRESTVIEW      MOCLDY    78  75  90 CALM      30.00S
DUKE FIELD     MOCLDY    78  73  84 E6        29.99R
VALPARAISO     MOCLDY    83  73  70 W7        29.96S
MARY ESTHER    MOCLDY    83  73  71 W3        29.98R
PANAMA CITY    FAIR      81  75  82 SW5       29.97F
TYNDALL AFB    PTCLDY    82  74  75 W7        29.98S
APALACHICOLA   PTCLDY    83  75  77 NW10      29.98R

STATION/POSITION SKY/WX   TEMP    WIND        PRES    WAVE   SWELL
                          AIR SEA DIR/SP/G            HT/PER HT/PER
                          (F)     (DEG/KT/KT) (MB)    (FT/S) (FT/S)
30.1N   87.6W              83 84  270/ 12/ 14 1014.9S
29.2N   88.2W              85 87  250/  4/  6 1015.8S   2/ 6   2/ 6
28.8N   86.0W              84     290/  6/  8 1016.2R   1/ 5   2/ 5
PANAMA CITY BEAC           83 85  280/ 11/ 13 1016.0
TOWER C                    82                 1015.7R
28.5N   84.5W              84 87  300/  6/  8 1014.4R   1/ 5   2/ 5

$$
FLZ011-016>038-118-127-128-134-139-239-140100-
NORTH FLORIDA

CITY           SKY/WX    TMP DP  RH WIND       PRES   REMARKS
MARIANNA       HVY RAIN  75  74  96 NW14G24   29.98R VSB 1/4
TALLAHASSEE    TSTM      75  75 100 S6        30.00F FOG
LIVE OAK         N/A     75  77 100 CALM      30.00R
CROSS CITY     MOCLDY    78  75  92 CALM      29.99S
LAKE CITY      LGT RAIN  72  72 100 CALM      30.01S
GAINESVILLE    CLOUDY    78  72  81 N3        30.02S
WILLISTON      CLOUDY    75  74  97 CALM      30.00S
PALATKA        MOCLDY    70  70 100 CALM      30.00S
MAYPORT NAS    PTCLDY    80  75  84 NE14      29.99F
JACKSONVILLE   MOCLDY    78  73  84 NE8       29.99S
JAX NAS        MOCLDY    79  75  87 NE6       30.00F
JAX CECIL      PTCLDY    79  79 100 E5        30.00S
FERNANDINA BEA FAIR      79  73  83 NE10      30.00S
ST AUGUSTINE   MOCLDY    81  75  83 MISG      30.00S

STATION/POSITION SKY/WX   TEMP    WIND        PRES    WAVE   SWELL
                          AIR SEA DIR/SP/G            HT/PER HT/PER
                          (F)     (DEG/KT/KT) (MB)    (FT/S) (FT/S)
SHELL POINT      NOT AVBL
KEATON BEACH               80     350/  5/  7 1015.6R
CEDAR KEY                  84     320/  5/  8 1015.9R
FERNANDINA                 84 84   30/  6/ 12 1016.3
30.7N   81.3W              80 81                N/A     3/ 5
MAYPORT                    81 83   50/ 12/ 13 1016.4
31.4N   80.9W              80 83   70/ 14/ 16 1015.4R   4/ 6   2/ 9
ST AUGUSTINE               77 78  250/  3/  4 1015.9F

$$
FLZ040-043>046-052-053-057-058-063-144-140100-
INTERIOR CENTRAL FLORIDA

CITY           SKY/WX    TMP DP  RH WIND       PRES   REMARKS
OCALA          LGT RAIN  75  74  96 E3        30.02R FOG
LEESBURG       CLOUDY    81  70  69 CALM      30.00S
SANFORD        CLOUDY    79  73  82 E9        30.00R
ORLANDO EXEC   CLOUDY    82  72  71 E9        29.99R
ORLANDO INTL   CLOUDY    81  72  74 E9        30.00R
KISSIMMEE      CLOUDY    80  74  81 S9        30.01R THUNDER
WINTER HAVEN   MOCLDY    77  72  84 E3        30.01R
LAKELAND INTL  PTCLDY    82  72  69 S5        30.01R
BARTOW         FAIR      77  73  88 VRB6      30.01R
SEBRING        TSTM      73  73 100 N8        30.03F
OKEECHOBEE     MOCLDY    75  75 100 CALM      30.00S

$$
FLZ041-047-054-059-064-141-147-140100-
EAST CENTRAL FLORIDA

CITY           SKY/WX    TMP DP  RH WIND       PRES   REMARKS
DAYTONA BEACH  CLOUDY    79  73  82 CALM      30.00R
DELAND         CLOUDY    77  72  86 SE5       30.01S
NEW SMYRNA BEA MOCLDY    79  73  83 NE6       30.01R
JFK SPACE CTR  MOCLDY    75  72  91 CALM      29.99R
TITUSVILLE     PTCLDY    79  75  89 W2        30.01F
CAPE CANAVERAL MOCLDY    77  73  88 CALM      29.98S
PATRICK AFB    DRIZZLE  N/A N/A N/A NW3       29.99R
MELBOURNE      CLOUDY    79  74  84 NW3       30.00R
VERO BEACH     MOCLDY    78  75  90 S5        30.01R
FT PIERCE      MOCLDY    78  75  90 CALM      30.01R
STUART         PTCLDY    79  73  83 SW3       30.02S

STATION/POSITION SKY/WX   TEMP    WIND        PRES    WAVE   SWELL
                          AIR SEA DIR/SP/G            HT/PER HT/PER
                          (F)     (DEG/KT/KT) (MB)    (FT/S) (FT/S)
28.5N   80.2W              82 86  260/ 10/ 14 1014.6R   1/ 8   2/ 8
28.9N   78.5W              82 85  190/  8/ 10 1015.5R
TRIDENT PIER                      310/  7/  9   N/A
27.6N   80.2W                 84                N/A     1/ 8

$$
FLZ050-056-061-142-242-148-248-149-249-151-251-155-255-
160-260-140100-
WEST CENTRAL FLORIDA

CITY           SKY/WX    TMP DP  RH WIND       PRES   REMARKS
CRYSTAL RIVER  MOCLDY    82  73  74 CALM      30.00S
INVERNESS      CLOUDY    81  75  83 CALM      30.01S
BROOKSVILLE    CLOUDY    84  73  69 NW5       30.01R
CLEARWATER AIR MOCLDY    82  70  65 N5        30.01R
ST PETE CLEARW MOCLDY    83  71  67 NW8       30.00R
TAMPA INTL     MOCLDY    86  70  58 NW7       30.01R
TAMPA EXEC     MOCLDY    86  73  66 N5        30.01R
PLANT CITY     MOCLDY    88  72  58 CALM      30.02R
MACDILL AFB    CLOUDY    84  72  65 NW6       29.96R
ST PETERSBURG  RAIN      86  74  67 N9        29.99R
SARASOTA       PTCLDY    85  72  65 NW8       29.99R
VENICE         FAIR      86  75  70 NW8       30.00R HX  95

STATION/POSITION SKY/WX   TEMP    WIND        PRES    WAVE   SWELL
                          AIR SEA DIR/SP/G            HT/PER HT/PER
                          (F)     (DEG/KT/KT) (MB)    (FT/S) (FT/S)
27.3N   84.3W                 86                N/A     1/ 5
CLEARWATER BEACH           85 89  360/  6/  8 1016.0
MIDDLE TAMPA BAY           86     350/  8/ 10   N/A
VENICE                     86 88  310/  9/ 11 1015.1F

$$
FLZ066-069-070-075>078-162-262-165-265-140100-
SOUTHWEST FLORIDA AND KEYS

CITY           SKY/WX    TMP DP  RH WIND       PRES   REMARKS
PUNTA GORDA    MOCLDY    81  75  82 E3        30.01R
FT MYERS       TSTM      80  74  81 E9        30.00R
SOUTHWEST INTL MOCLDY    80  74  81 SE7       30.00R
NAPLES         MOCLDY    80  73  79 E9        30.00R
MARCO ISLAND   PTCLDY    79  72  79 E6        30.01F
IMMOKALEE      FAIR      77  73  88 CALM      30.00S
MARATHON       MOCLDY    86  72  62 NE3       29.99R
KEY WEST NAS   MOCLDY    89  75  63 NE5       30.00R HX  99
KEY WEST INTL  MOCLDY    86  74  67 CALM      30.01R

STATION/POSITION SKY/WX   TEMP    WIND        PRES    WAVE   SWELL
                          AIR SEA DIR/SP/G            HT/PER HT/PER
                          (F)     (DEG/KT/KT) (MB)    (FT/S) (FT/S)
NAPLES                     87 89  100/  7/ 11 1014.6
26.0N   85.6W              85 87   70/  4/  6 1014.7R   1/ 5   2/ 5
DRY TORTUGAS     NOT AVBL
SOMBRERO KEY               85      40/  3/  5 1015.0R
LONG KEY                   85      60/  3/  4 1015.2R

$$
FLZ067-068-071>074-168-172>174-140100-
SOUTHEAST FLORIDA

CITY           SKY/WX    TMP DP  RH WIND       PRES   REMARKS
W PALM BEACH   CLOUDY    84  72  67 W7        30.02R
BOCA RATON     PTCLDY    82  75  78 W17G25    30.01R
FT LAUDER-EXEC CLOUDY    80  71  74 NW8       30.01R
FT LAUDERDALE  CLOUDY    84  73  69 W3        29.99S
POMPANO BEACH  CLOUDY    84  74  71 W8        30.00S
OPA LOCKA      CLOUDY    82  72  71 W7        30.00S
MIAMI          MOCLDY    84  74  71 W5        30.00S
WEST KENDALL   CLOUDY    82  77  84 CALM      30.00S
HOMESTEAD      RAIN      80  74  83 W3        29.99R

STATION/POSITION SKY/WX   TEMP    WIND        PRES    WAVE   SWELL
                          AIR SEA DIR/SP/G            HT/PER HT/PER
                          (F)     (DEG/KT/KT) (MB)    (FT/S) (FT/S)
VIRGINIA KEY               86 87  180/  3/  4 1016.5
LAKE WORTH                 84 87  210/  9/ 10 1015.2
FOWEY ROCKS                83 85  180/  3/  4 1016.1R
SETTLEMENT POINT           84     180/  4/  5 1016.1R

$$





Office: EYW